Content
SEND FEEDBACK

Daily
Averages
Monthly
Summary
United States of America

GREENVILLE, ALABAMA


Home > North America > United States > Alabama
Elevation: 468 feet     Latitude: 31 51N     Longitude: 086 39W

WEATHER
 
SELECT A DAY
Number of Records: 73,233;   Date Range: 2/23/07 - 7/29/14
 
SHARE

PRINT THIS DATA

[ ← Previous Day ]
WEATHER ALMANAC - JANUARY 31, 2013
[ Next Day → ]
[ °C ]   °F
Weather ElementAverageHighLow
Temperature43.8 °F55 °F (2:56 pm)35.1 °F (5:56 am)
Dewpoint26.8 °F34 °F (7:56 pm)21 °F (1:56 pm)
Humidity55.2 %83 % (8:56 pm)27 % (2:56 pm)
Barometer30.19 in30.27 in (10:56 pm)30.08 in (1:56 am)
Wind Speed6.7 mph17.3 mph (12:56 pm)
Wind Gust21.9 mph (9:56 am)
Weather ElementAverage
Visibility10 mi
Wind DirectionSW (222.6 °)

Weather ElementTotal
Precipitation---
Heating Degree Days20 (Base 65)
Averaged from 23 records on January 31, 2013
WEATHER CONDITIONS BREAKOUT
WIND DIRECTION BREAKOUT
WEATHER BY HOUR - JANUARY 31, 2013
[ °C ]   °F
Local TimeTemperatureDewpointHumidityBarometerVisibilityWind DirectionWind SpeedGust SpeedPrecipitationEventsConditions
1:56 AM41.0 °F28.0 °F60 %30.08 in10.0 miWNW (300°)8.1 mphClear
2:56 AM39.9 °F27.0 °F60 %30.09 in10.0 miWNW (290°)8.1 mphClear
3:56 AM37.9 °F28.0 °F68 %30.12 in10.0 miWest (270°)6.9 mphClear
4:56 AM36.0 °F28.0 °F73 %30.11 in10.0 miWest (270°)3.5 mphClear
5:56 AM35.1 °F28.0 °F76 %30.13 in10.0 miWest (280°)4.6 mphClear
6:56 AM35.1 °F28.0 °F76 %30.15 in10.0 miWSW (240°)3.5 mphClear
7:56 AM37.9 °F28.9 °F70 %30.18 in10.0 miWest (270°)5.8 mphClear
8:56 AM42.1 °F28.0 °F58 %30.20 in10.0 miNW (310°)12.7 mphClear
9:56 AM45.0 °F26.1 °F48 %30.22 in10.0 miWNW (290°)13.8 mph21.9 mphClear
10:56 AM48.0 °F21.9 °F36 %30.24 in10.0 miWNW (300°)11.5 mph19.6 mphClear
11:56 AM50.0 °F21.9 °F33 %30.22 in10.0 miWNW (300°)10.4 mphClear
12:56 PM53.1 °F21.9 °F30 %30.20 in10.0 miNNW (340°)17.3 mphClear
1:56 PM54.0 °F21.0 °F28 %30.19 in10.0 miNW (320°)10.4 mph19.6 mphClear
2:56 PM55.0 °F21.0 °F27 %30.18 in10.0 miNNW (330°)10.4 mph18.4 mphClear
3:56 PM54.0 °F21.0 °F28 %30.19 in10.0 miNW (320°)8.1 mphClear
4:56 PM53.1 °F21.0 °F29 %30.19 in10.0 miCalmClear
5:56 PM46.9 °F27.0 °F46 %30.21 in10.0 miCalmClear
6:56 PM42.1 °F33.1 °F70 %30.22 in10.0 miCalmClear
7:56 PM41.0 °F34.0 °F76 %30.24 in10.0 miCalmClear
8:56 PM37.9 °F33.1 °F83 %30.24 in10.0 miCalmClear
9:56 PM39.9 °F30.9 °F70 %30.25 in10.0 miSW (230°)3.5 mphClear
10:56 PM42.1 °F28.9 °F60 %30.27 in10.0 miSW (230°)6.9 mphClear
11:56 PM41.0 °F30.0 °F65 %30.27 in10.0 miSW (230°)8.1 mphClear
Hourly data recorded from KPRN, located miles away from Greenville, Alabama







STORIES FROM OUR PARTNERS